Regional Weather Roundup
Issued by NWS

Home | Current Version | Previous Version | Text Only | Print | Product List | Glossary On
Versions: 1 2 3 4 5 6 7 8 9 10 11 12 13 14 15 16 17 18 19 20 21 22 23 24 25 26 27 28 29 30 31 32 33 34 35 36 37 38 39 40 41 42 43 44 45 46 47 48 49 50
000
ASUS43 KDTX 062310
RWRMI
MICHIGAN HOURLY REGIONAL WEATHER ROUNDUP
NATIONAL WEATHER SERVICE DETROIT/PONTIAC MI
600 PM EST SAT MAR 06 2021

NOTE: "FAIR" INDICATES FEW OR NO CLOUDS BELOW 12,000 FEET WITH NO
SIGNIFICANT WEATHER AND/OR OBSTRUCTION TO VISIBILITY.

MIZ047>049-052>055-059>063-066>070-074>076-081>083-070000-
SOUTHEAST LOWER MICHIGAN

CITY           SKY/WX    TMP DP  RH WIND       PRES   REMARKS
ADRIAN         CLEAR     40  15  36 N6        30.24S
ALMA           CLEAR     38   9  29 NW9       30.25R WCI  31
ANN ARBOR      CLEAR     37  12  35 N12       30.23S WCI  29
BAD AXE        CLEAR     31  13  47 CALM      30.22S
CARO           CLEAR     34  10  37 NW3       30.22S
DETROIT CITY   CLEAR     39   9  29 NW10      30.25R WCI  32
DETROIT        PTCLDY    38  10  31 NW12      30.24S WCI  30
FLINT          CLEAR     37  14  38 NW12      30.24R WCI  29
GROSSE ILE     CLEAR     38   7  28 NW8       30.24R WCI  32
HILLSDALE      CLEAR     38  15  39 NW14      30.22R WCI  29
HOWELL         MOCLDY    37  16  42 W9        30.23R WCI  30

CITY           SKY/WX    TMP DP  RH WIND       PRES   REMARKS
JACKSON        MOCLDY    39  17  41 W12G21    30.23R WCI  32
LAMBERTVILLE   CLEAR     39  12  32 N6        30.24R WCI  35
LANSING        PTCLDY    36  15  42 NW9       30.25R WCI  29
LAPEER         PTCLDY    34  16  47 NW3       30.23S
MASON          PTCLDY    36  18  48 NW10      30.23S WCI  29
MONROE         CLEAR     38   8  29 NW8       30.24R WCI  32
MT. CLEMENS    PTCLDY    35  10  35 N8        30.23R WCI  28
PONTIAC        PTCLDY    35  12  38 NW8       30.22R WCI  29
PORT HOPE        N/A     30  11  45 N9        30.23R WCI  22
PORT HURON     CLEAR     32   1  27 CALM      30.25S
TRI CITIES     CLEAR     36   8  31 NW16      30.24R WCI  26
MIDLAND        CLEAR     36  11  35 NW10      30.24R WCI  28
TROY           CLEAR     36  11  36 NW8       30.26R WCI  29
SAGINAW HB     CLEAR     35  11  36 NW8       30.24R WCI  29
$$
MIZ043>046-050>051-056>058-064>065-071>073-077>080-070000-
SOUTHWEST LOWER MICHIGAN

CITY           SKY/WX    TMP DP  RH WIND       PRES   REMARKS
BATTLE CREEK   CLEAR     36  17  46 NW16      30.26S WCI  26
BENTON HARBOR  CLEAR     36  26  67 VRB6      30.32S WCI  31
BIG RAPIDS     CLEAR     31  14  48 NW9G17    30.27R WCI  23
COLDWATER      CLEAR     38  19  46 NW14      30.25S WCI  29
FREMONT        FAIR      32  22  65 N13G20    30.30R WCI  22
HOLLAND        CLEAR     34  21  59 NW10      30.32R WCI  26
GRAND RAPIDS   PTCLDY    35  21  56 NW15      30.28R WCI  25
IONIA          FAIR      36   9  32 W16       30.25R WCI  26
KALAMAZOO      CLEAR     37  17  44 NW15G24   30.28S WCI  28
LUDINGTON      CLEAR     32  17  53 NE7       30.32S WCI  26
MARSHALL       CLEAR     36  18  48 W14       30.26R WCI  27
MOUNT PLEASANT CLEAR     36  11  35 N8        30.24R WCI  29
MUSKEGON       CLEAR     35  20  54 NW9       30.32R WCI  28
SOUTH HAVEN    CLEAR     34  25  69 N8        30.32S WCI  27
$$
MIZ016>042-070000-
NORTHERN LOWER MICHIGAN

CITY           SKY/WX    TMP DP  RH WIND       PRES   REMARKS
ALPENA         CLEAR     29   6  38 NW12G24   30.25R WCI  19
BEAVER ISLAND  MOCLDY    26  13  59 N9G17     30.32R WCI  16
BELLAIRE       MOCLDY    29  15  55 N3        30.31S
CADILLAC       MOCLDY    28  13  54 NW13G18   30.25R WCI  17
CHARLEVOIX     PTCLDY    28  14  57 NW12G18   30.31S WCI  18
FRANKFORT      CLEAR     31  16  54 N7        30.32F WCI  24
GAYLORD        MOCLDY    28  10  46 NW9G21    30.24R WCI  19
GRAYLING       PTCLDY    26  11  54 NW12      30.25R WCI  15
HARBOR SPRINGS PTCLDY    26  12  55 NW7G18    30.29S WCI  18
HOUGHTON LAKE  CLEAR     27  11  51 NW10      30.26R WCI  17
MANISTEE       CLEAR     30  18  60 VRB7      30.32F WCI  23
OSCODA         CLEAR     32   6  33 NW13      30.23R WCI  22
PELLSTON       MOCLDY    25  13  60 NW16      30.29R WCI  12
ROGERS CITY    CLEAR     25  17  69 NW13G21   30.27R WCI  14
TRAVERSE CITY  PTCLDY    31  16  54 NW9       30.30S WCI  23
$$
MIZ007>008-015-070000-
EASTERN UPPER MICHIGAN

CITY           SKY/WX    TMP DP  RH WIND       PRES   REMARKS
KINROSS        CLEAR     16   8  71 NW16      30.29R WCI   1
MACKINAC ISLAN CLEAR     25   9  50 NW14      30.28R WCI  13
NEWBERRY       MOCLDY    18  10  70 N15G21    30.31S WCI   3
S. S. MARIE    CLEAR     19   8  62 NW15G21   30.29S WCI   5
MUNISING         N/A     22  13  68 N17G23    30.36R WCI   8
$$
MIZ004>006-011>014-085-070000-
CENTRAL UPPER MICHIGAN

CITY           SKY/WX    TMP DP  RH WIND       PRES   REMARKS
MANISTIQUE     CLEAR     24  12  60 NW12G22   30.32S WCI  13
ESCANABA       CLEAR     30  16  56 N8        30.33R WCI  22
MENOMINEE      CLEAR     32  16  51 E7        30.33R WCI  26
SAWYER-GWINN   CLEAR     23  14  68 N15       30.31R WCI  10
$$
MIZ001>003-009>011-084-070000-
WESTERN UPPER MICHIGAN

CITY           SKY/WX    TMP DP  RH WIND       PRES   REMARKS
IRON MOUNTAIN  CLEAR     34   9  35 N10       30.28S WCI  26
HOUGHTON       CLEAR     24   3  40 NW5       30.35S WCI  18
COPPER HARBOR    N/A     22  13  68 NE6       30.38  WCI  14
IRONWOOD       CLEAR     33   3  28 E6        30.33F WCI  28
$$

ABBREVIATIONS USED IN REMARKS
   TC - TEMPERATURE IN CELSIUS
  WCI - WIND CHILL INDEX
   HX - HEAT INDEX
  VSB - VISIBILITY





USA.gov is the U.S. government's official web portal to all federal, state and local government web resources and services.